This demonstration page uses our WeatherBlox Daily Observations layout. Learn more.

Left ArrowRight Arrow

Hourly Observations for June 19, 2021

Temp ( °F °C ) Dew Point ( °F °C ) Humidity (%) Winds ( mph kmh ) Pressure ( in mb ) Visibility ( mi km ) Precip ( " mm )
12:53 am 00:53 Clear 81 27.2 49 9.4 33 33 SSE 13 20 29.78 1008 10 16 0.00 0.00
1:53 am 01:53 Clear 79 26.1 51 10.6 38 38 SSE 10 17 29.78 1008 10 16 0.00 0.00
2:53 am 02:53 Clear 77 25 52 11.1 42 42 SSE 9 15 29.76 1008 10 16 0.00 0.00
3:53 am 03:53 Clear 74 23.3 51 10.6 45 45 ESE 7 11 29.76 1008 10 16 0.00 0.00
4:53 am 04:53 Clear 74 23.3 53 11.7 48 48 SE 10 17 29.76 1008 10 16 0.00 0.00
5:53 am 05:53 Clear 72 22.2 55 12.8 55 55 SE 10 17 29.77 1008 10 16 0.00 0.00
6:53 am 06:53 Sunny 71 21.7 57 13.9 61 61 SE 10 17 29.78 1008 10 16 0.00 0.00
7:53 am 07:53 Sunny 73 22.8 59 15 62 62 SE 12 19 29.79 1009 10 16 0.00 0.00
8:53 am 08:53 Sunny 77 25 59 15 54 54 SE 16 26 29.78 1009 10 16 0.00 0.00
9:53 am 09:53 Sunny 82 27.8 60 15.6 47 47 SSE 14 22 29.78 1009 10 16 0.00 0.00
10:53 am 10:53 Sunny 86 30 59 15 40 40 SSE 7 11 29.78 1008 10 16 0.00 0.00
11:53 am 11:53 Sunny 90 32.2 57 13.9 33 33 E 12 19 29.76 1008 10 16 0.00 0.00
12:53 pm 12:53 Sunny 93 33.9 51 10.6 24 24 ESE 12 19 29.74 1007 10 16 0.00 0.00
1:53 pm 13:53 Sunny 96 35.6 50 10 21 21 SE 13 20 29.71 1006 10 16 0.00 0.00
2:53 pm 14:53 Sunny 97 36.1 47 8.3 18 18 E 12 19 29.69 1005 10 16 0.00 0.00
3:53 pm 15:53 Sunny 98 36.7 45 7.2 16 16 VRB 6 9 29.67 1005 10 16 0.00 0.00
4:53 pm 16:53 Sunny 99 37.2 44 6.7 15 15 ESE 12 19 29.65 1004 10 16 0.00 0.00
5:53 pm 17:53 Sunny 100 37.8 48 8.9 17 17 SE 16 26 29.63 1003 10 16 0.00 0.00
6:53 pm 18:53 Sunny 98 36.7 47 8.3 17 17 SE 15 24 29.62 1003 10 16 0.00 0.00
7:53 pm 19:53 Sunny 96 35.6 48 8.9 19 19 ESE 17 28 29.62 1003 10 16 0.00 0.00
8:53 pm 20:53 Sunny 93 33.9 50 10 23 23 SE 17 28 29.64 1004 10 16 0.00 0.00
9:53 pm 21:53 Clear 90 32.2 51 10.6 26 26 SE 18 30 29.65 1004 10 16 0.00 0.00
10:53 pm 22:53 Clear 87 30.6 51 10.6 29 29 SE 18 30 29.67 1005 10 16 0.00 0.00
11:53 pm 23:53 Clear 85 29.4 52 11.1 32 32 SSE 17 28 29.68 1005 10 16 0.00 0.00

Powered by AerisWeather